Jordan, MT

8:40 AM MST on December 09, 2019 (GMT -0700)
Jordan

Weather History for KJDN - November, 2019

Change the Weather History Date:

Tuesday, November 12, 2019

  Actual Average Record
Temperature  
Mean Temperature 22 °F 32 °F  
Max Temperature 42 °F 45 °F 78 °F (1999)
Min Temperature 2 °F 18 °F -27 °F (1911)
Degree Days  
Heating Degree Days 43 33  
Month to date heating degree days 461 366  
Since 1 July heating degree days 1523 1339  
Cooling Degree Days 0 0  
Month to date cooling degree days 0 0  
Year to date cooling degree days 483 421  
Moisture  
Dew Point 23 °F    
Average Humidity 72    
Maximum Humidity 92    
Minimum Humidity 52    
Precipitation  
Precipitation 0.00 in 0.02 in 0.56 in (2008)
Month to date precipitation 0.59 0.22  
Year to date precipitation 18.71 12.24  
Snow  
Snow 0.00 in - - ()
Month to date snowfall 0.0  
Since 1 July snowfall 0.0  
Since 1 September snowfall 0.0  
Snow Depth 0.00 in    
Sea Level Pressure  
Sea Level Pressure 29.96 in    
Wind  
Wind Speed 7 mph (West)    
Max Wind Speed 14 mph    
Max Gust Speed 17 mph    
T = Trace of Precipitation, MM = Missing Value Source: NWS Daily Summary

Daily Weather History Graph

Daily Weather History Graph

Search for Another Location

Airport or City:

Astronomy

Nov. 12, 2019 Rise Set
Actual Time 7:07 AM MST 4:35 PM MST
Civil Twilight 6:34 AM MST 5:08 PM MST
Nautical Twilight 5:57 AM MST 5:45 PM MST
Astronomical Twilight 5:21 AM MST 6:21 PM MST
Moon 5:06 PM MST (11/12) 6:58 AM MST (11/12)
Length of Visible Light 10h 34m
Length of Day
9h 28m
Full, 100% of the Moon is Illuminated
Nov 12
Full
Nov 19
Last Quarter
Nov 26
New
Dec 3
First Quarter
Dec 11
Full

Hourly Weather History & Observations

Time (MST) Temp. Windchill Dew Point Humidity Pressure Visibility Wind Dir Wind Speed Gust Speed Precip Events Conditions
2:48 AM 9.0 °F -5.1 °F 1.0 °F 70% 30.12 in - West 10.4 mph - N/A   Unknown
4:48 AM 21.9 °F 11.7 °F 12.0 °F 66% 30.06 in - West 9.2 mph - N/A   Unknown
5:48 AM 21.9 °F 12.5 °F 12.0 °F 66% 30.03 in - West 8.1 mph - N/A   Unknown
6:48 AM 17.1 °F 6.6 °F 9.0 °F 71% 30.05 in - West 8.1 mph - N/A   Unknown
7:48 AM 19.9 °F 9.3 °F 10.9 °F 68% 30.03 in - WSW 9.2 mph - N/A   Unknown
8:48 AM 32.0 °F 24.2 °F 18.0 °F 56% 30.02 in - West 9.2 mph - N/A   Unknown
10:48 AM 37.9 °F 32.7 °F 21.9 °F 53% 29.98 in - WSW 6.9 mph - N/A   Unknown
12:48 PM 42.1 °F 38.4 °F 26.1 °F 53% 29.95 in - West 5.8 mph - N/A   Unknown
1:48 PM 41.0 °F 34.7 °F 26.1 °F 55% 29.91 in - West 10.4 mph - N/A   Unknown
2:48 PM 39.0 °F 34.8 °F 28.9 °F 67% 29.89 in - WSW 5.8 mph - N/A   Unknown
3:48 PM 37.9 °F 32.7 °F 28.9 °F 70% 29.90 in - WNW 6.9 mph - N/A   Unknown
4:48 PM 37.9 °F 32.7 °F 28.9 °F 70% 29.89 in - West 6.9 mph - N/A   Unknown
5:48 PM 37.9 °F 34.4 °F 28.9 °F 70% 29.88 in - West 4.6 mph - N/A   Unknown
6:48 PM 37.0 °F 31.6 °F 28.9 °F 73% 29.92 in - West 6.9 mph - N/A   Unknown
7:48 PM 37.0 °F 33.3 °F 30.0 °F 76% 29.92 in - West 4.6 mph - N/A   Unknown
8:48 PM 36.0 °F 32.1 °F 33.1 °F 89% 29.91 in - WNW 4.6 mph - N/A   Unknown
9:48 PM 36.0 °F 30.3 °F 32.0 °F 86% 29.92 in - WNW 6.9 mph - N/A   Unknown
10:48 PM 35.1 °F 28.6 °F 32.0 °F 89% 29.94 in - WNW 8.1 mph - N/A   Unknown
11:48 PM 35.1 °F 29.3 °F 32.0 °F 89% 29.95 in - West 6.9 mph - N/A   Unknown